Regional Weather Roundup
Issued by NWS Upton, NY

Current Version | Previous Version | Text Only | Print | Product List | Glossary Off
Versions: 1 2 3 4 5 6 7 8 9 10 11 12 13 14 15 16 17 18 19 20 21 22 23 24 25 26 27
000 ASUS41 KOKX 232209 RWROKX REGIONAL WEATHER ROUNDUP NATIONAL WEATHER SERVICE NEW YORK NY 600 PM EDT FRI JUN 23 2017 NOTE: "FAIR" INDICATES FEW OR NO CLOUDS BELOW 12,000 FEET WITH NO SIGNIFICANT WEATHER AND/OR OBSTRUCTIONS TO VISIBILITY. NYZ071-072-176-178-NJZ106-104-232300- NEW YORK CITY METRO AREA CITY SKY/WX TMP DP RH WIND PRES REMARKS Central Park PTSUNNY 83 72 69 VRB3 29.68F Bronx Bot Gard N/A 84 70 61 S8 29.67S LaGuardia APRT CLOUDY 85 73 67 SW14 29.64F HX 91 Kennedy INTL CLOUDY 77 71 82 S17 29.67F Breezy Point N/A 70 N/A N/A S10 N/A Newark/Liberty CLOUDY 85 72 65 SW12 29.64F HX 91 Teterboro CLOUDY 85 72 65 SW13 29.63F HX 91 $$ NYZ177-179-078>081-232300- LONG ISLAND NEW YORK CITY SKY/WX TMP DP RH WIND PRES REMARKS Jones Beach N/A 70 N/A N/A S12G20 N/A Matinecock PT NOT AVBL Farmingdale NOT AVBL MacArthur/ISP CLOUDY 76 71 85 SW16G23 29.68F Shirley CLOUDY 74 71 91 S12 29.69F Mt Sinai Harb N/A 75 N/A N/A S12 N/A Westhampton CLOUDY 73 67 81 SW14G21 29.71F East Hampton CLOUDY 71 67 87 SW12G23 29.70S Montauk N/A 71 67 87 SW9G21 29.71F $$ NYZ052-065-067-232300- HUDSON VALLEY CITY SKY/WX TMP DP RH WIND PRES REMARKS White Plains MOSUNNY 82 70 65 SW8 29.66F Larchmont Harb N/A 77 N/A N/A S14 N/A Croton O-T Hud N/A 81 N/A N/A SW8 N/A Newburgh PTSUNNY 81 73 78 SW8G17 29.66S Montgomery CLOUDY 83 72 69 SW9 29.62F Poughkeepsie CLOUDY 81 69 67 SW12G17 29.61F Albany PTSUNNY 81 69 67 S10 29.56F $$ NJZ001-105-106-008-010-013-015-019>022-104-232300- NEW JERSEY CITY SKY/WX TMP DP RH WIND PRES REMARKS Newark/Liberty CLOUDY 85 72 65 SW12 29.64F HX 91 Teterboro CLOUDY 85 72 65 SW13 29.63F HX 91 Caldwell CLOUDY 84 72 67 VRB3 29.64F Somerville LGT RAIN 83 74 74 S3 29.63F Linden MOCLDY 86 70 59 W7 29.65S HX 90 Perth Amboy N/A 84 N/A N/A SW15G22 N/A Sussex LGT RAIN 81 73 76 VRB5 29.64F Andover N/A 80 72 76 VRB5 29.66F Trenton PTSUNNY 84 73 69 SW14 29.64F HX 90 Millville CLOUDY 83 75 77 VRB7 29.69F HX 90 Atlantic City MOSUNNY 85 74 69 SW15G25 29.69 HX 92 Wrightstown MOSUNNY 86 73 66 SW18G24 29.63F HX 93 Toms River MOSUNNY 87 76 69 S13G18 29.68F HX 97 Belmar MOSUNNY 85 73 67 SW14G20 29.68F HX 91 $$ PAZ047>061-062-071-232300- EASTERN PENNSYLVANIA CITY SKY/WX TMP DP RH WIND PRES REMARKS Philadelphia PTSUNNY 87 73 62 SW20G28 29.66F HX 94 Allentown TSTM 76 73 91 W8 29.65F FOG Scranton CLOUDY 81 70 69 W12 29.64F $$ CTZ002-004>006-009-010-012-RIZ004-006-007-MAZ004-011-015-232300- SOUTHERN NEW ENGLAND IN CT CITY SKY/WX TMP DP RH WIND PRES REMARKS Bradley INTL PTSUNNY 79 73 82 S12 29.62F Hartford CLOUDY 79 72 79 S12G17 29.62F Danbury CLOUDY 80 71 74 SW12G21 29.67S Wtrbury/Oxford PTSUNNY 77 68 73 SW9 29.68F Bridgeport CLOUDY 78 69 73 S17 29.66S Meriden PTSUNNY 79 70 74 S12G18 29.65F New Haven CLOUDY 75 70 83 S9 29.66F Chester CLOUDY 75 72 88 SW8G15 29.68F Groton PTSUNNY 72 68 87 SW14 29.67F Wilimantic CLOUDY 79 71 76 SW9G18 29.65S IN RI CITY SKY/WX TMP DP RH WIND PRES REMARKS Providence CLOUDY 75 70 84 SW17G28 29.67S Block Island CLOUDY 69 65 86 SW21 29.70F Westerly CLOUDY 73 67 81 SW14G22 29.69F IN MA CITY SKY/WX TMP DP RH WIND PRES REMARKS Boston MOSUNNY 81 68 64 S14 29.61F Worcester CLOUDY 78 64 61 S14G23 29.65F Westfield N/A 80 71 74 S10 N/A Provincetown CLOUDY 72 67 84 S15G22 29.68F Nantucket CLOUDY 66 65 96 S14 29.74F $$ ANZ330-335-338-340-345-350-353-355-232300- COASTAL MARINE OBSERVATIONS STATION/POSITION TIME SKY/WX TEMP WIND PRES VSBY WAVE AIR SEA DIR/SP/G HT/PER (UTC) (F) (DEG/KT/KT) (MB) (MI) (FT/S) NY HARB ENTRANCE 2050 69 66 200/ 21/ 25 1004.5 5/ 5 20 S FIRE ISLAND 2150 71 69 210/ 19/ 25 1004.6 6/ 6 GREAT SOUTH BAY 2130 72 76 210/ 17/ 23 N/A 23 SSW MONTAUK P 2050 69 65 1006.2 5/ 5 15 E BARNEGAT LI 2130 65 N/A 5/ 6 HUDSON CANYON 2050 71 67 210/ 21/ 23 1007.3 5/ 5 KINGS POINT 2124 78 67 220/ 12/ 15 1004.1 EXECUTION ROCKS 2145 74 190/ 8/ 10 N/A CENTRAL LI SOUND NOT AVBL EASTERN LI SOUND NOT AVBL ROBBINS REEF 2130 230/ 14/ 17 1004.7 $$ >>>>>>>>>>>>>>>>>>>>>>>>>>>> KEY <<<<<<<<<<<<<<<<<<<<<<<<<<< > < > SKY/WX - Sky Condition/Present Weather < > TMP - Temperature in Fahrenheit < > DP - Dew Point in Fahrenheit < > RH - Relative Humidity in Percent < > WIND - Direction (from) and Speed in MPH < > PRES - Mean Sea Level Pressure (inches of Hg) < > WCI - Wind Chill Index < > VSB - VISIBILITY IN MILES < > HX - HEAT INDEX < > TC - TEMPERATURE IN CELSIUS < > VRB - VARIABLE WIND DIRECTION < > < >>>>>>>>>>>>>>>>>>>>>>>>>>>> KEY <<<<<<<<<<<<<<<<<<<<<<<<<<<

USA.gov is the U.S. government's official web portal to all federal, state and local government web resources and services.